Location: Namasale
(1.5000°N, 32.6167°E)
Time: 02:09:25
(UTC+00:00)

Hubble Space Telescope - Pass Details

Date: 09 December 2021
Orbit: 535 x 538 km, 28.5° (Epoch: 24 January)

Event Time Altitude Azimuth Distance (km) Brightness Sun altitude
Exits shadow 02:40:50 16° 337° (NNW) 1,409 2.5 -14.6°
Maximum altitude 02:43:20 30° 29° (NNE) 967 2.1 -14.0°
Drops below altitude 10° 02:46:57 10° 91° (E) 1,772 4.6 -13.2°
Sets 02:49:24 0° 102° (ESE) 2,663 6.2 -12.7°
